Location: Zagreb
(45.8000°N, 16.0000°E)
Time: 02:17:00
(UTC+02:00)

Transit 2A Rocket - Pass Details

Date: 31 January 2022
Orbit: 592 x 909 km, 66.7° (Epoch: 26 May)

Event Time Altitude Azimuth Distance (km) Brightness Sun altitude
Rises 20:12:07 0° 283° (WNW) 3,542 9.5 -33.5°
Reaches altitude 10° 20:16:15 10° 310° (NW) 2,594 8.4 -34.2°
Maximum altitude 20:19:01 13° 337° (NNW) 2,350 7.8 -34.7°
Enters shadow 20:21:00 12° 358° (N) 2,454 7.7 -35.0°
Drops below altitude 10° 20:21:47 10° 5° (N) 2,555 - -35.1°
Sets 20:25:48 0° 32° (NNE) 3,443 - -35.8°
